Flag for United Kingdom Weather past 2 weeks in Milton Keynes, England, United Kingdom

Now
63 °F

Fog.


Feels Like: 63 °F
Forecast: 58 / 69 °F
Wind: 9 mph from Northeast

Location: Cranfield

Current Time: Sep 19, 2014 at 11:47:54 AM

Latest Report: Sep 19, 2014 at 10:50 AM


Visibility: 3 mi

Pressure: 29.86 "Hg

Humidity: 100%

Dew point: 63 °F

Location of Milton KeynesLocation

Historic Weather in Milton Keynes — Graph

°F

Milton Keynes temperature yesterday

Maximum temperature yesterday: 75 °F (at 3:50 PM)
Minimum temperature yesterday: 59 °F (at 7:50 AM)
Average temperature yesterday: 67 °F

Past Weeks' High & Low Weather Summary

 TemperatureHumidityPressure
High75 °F (Sep 18, 3:50 PM)100% (Sep 5, 7:20 AM)30.36 "Hg (Sep 5, 7:20 AM)
Low48 °F (Sep 11, 7:50 AM)43% (Sep 8, 3:20 PM)29.80 "Hg (Sep 18, 1:50 PM)
Average64 °F80%30.08 "Hg
* Reported Sep 4 10:20 AM — Sep 19 10:50 AM, Milton Keynes, Weather by CustomWeather, © 2014

Note: Actual official high and low records may vary slightly from our data, if they occured in-between our weather recording intervals... More about our weather records

Advertising

Milton Keynes weather history for previous 24 hours

 ConditionsComfort  
Time TempWeatherWind HumidityBarometerVisibility
10:50 AM
Sep 19
63 °FFog.9 mph100%29.86 "Hg3 mi
10:20 AM63 °FFog.7 mph100%29.86 "Hg3 mi
9:50 AM63 °FFog.8 mph100%29.86 "Hg2 mi
9:20 AM63 °FFog.8 mph100%29.86 "Hg1 mi
8:50 AM63 °FFog.8 mph100%29.86 "Hg1 mi
8:20 AM61 °FFog.8 mph100%29.86 "Hg1 mi
7:50 AM61 °FFog.8 mph100%29.86 "Hg1 mi
3:50 PM
Sep 18
75 °FClear.13 mph69%29.80 "Hg4 mi
3:20 PM73 °FClear.12 mph74%29.80 "Hg4 mi
2:50 PM72 °FClear.10 mph78%29.80 "Hg4 mi
2:20 PM73 °FHaze.12 mph74%29.80 "Hg3 mi
1:50 PM72 °FClear.10 mph78%29.80 "Hg4 mi
12:50 PM70 °FHaze.10 mph83%29.83 "Hg2 mi
12:20 PM68 °FHaze.9 mph88%29.83 "Hg1 mi
11:50 AM66 °FHaze.10 mph94%29.83 "Hg1 mi
11:20 AM64 °FFog.10 mph100%29.83 "Hg1 mi
Weather by CustomWeather, © 2014

See weather overviewHow to use our weather pages